Powrót do katalogu

FENGYUN 1C DEB

AktywnyPO
NORAD 33698·DEBRIS·🇨🇳 China

Wystrzelony May 10, 1999 z Taiyuan Satellite Launch Center

Loading…

Następne Przeloty (najbliższe 24 godziny)

TLE

ŚwieżeSource: Space-Track

Epoka: Sep 12, 2026, 18:10 UTC

1 33698U 99025DGK 26255.75746679  .00000631  00000-0  13831-3 0  9994
2 33698  99.6459 263.1236 0137222 124.3602 237.0661 14.56470895996245

Śledź FENGYUN 1C DEB w czasie rzeczywistym z AllMySat

Download on the App Store